Year,Month,Day,Hour,Minute,Value (Times are PST for temperature in C)
2019,10,25,00,00,11.50
2019,10,25,00,01,11.40
2019,10,25,00,02,11.40
2019,10,25,00,03,11.40
2019,10,25,00,04,11.40
2019,10,25,00,05,11.40
2019,10,25,00,06,11.40
2019,10,25,00,07,11.40
2019,10,25,00,08,11.30
2019,10,25,00,09,11.30
2019,10,25,00,10,11.40
2019,10,25,00,11,11.40
2019,10,25,00,12,11.30
2019,10,25,00,13,11.30
2019,10,25,00,14,11.30
2019,10,25,00,15,11.30
2019,10,25,00,16,11.30
2019,10,25,00,17,11.30
2019,10,25,00,18,11.30
2019,10,25,00,19,11.30
2019,10,25,00,20,11.30
2019,10,25,00,21,11.30
2019,10,25,00,22,11.30
2019,10,25,00,23,11.40
2019,10,25,00,24,11.40
2019,10,25,00,25,11.40
2019,10,25,00,26,11.30
2019,10,25,00,27,11.40
2019,10,25,00,28,11.30
2019,10,25,00,29,11.30
2019,10,25,00,30,11.30
2019,10,25,00,31,11.30
2019,10,25,00,32,11.30
2019,10,25,00,33,11.30
2019,10,25,00,34,11.30
2019,10,25,00,35,11.30
2019,10,25,00,36,11.30
2019,10,25,00,37,11.30
2019,10,25,00,38,11.30
2019,10,25,00,39,11.30
2019,10,25,00,40,11.30
2019,10,25,00,41,11.20
2019,10,25,00,42,11.20
2019,10,25,00,43,11.20
2019,10,25,00,44,11.20
2019,10,25,00,45,11.20
2019,10,25,00,46,11.20
2019,10,25,00,47,11.20
2019,10,25,00,48,11.30
2019,10,25,00,49,11.30
2019,10,25,00,50,11.30
2019,10,25,00,51,11.30
2019,10,25,00,52,11.30
2019,10,25,00,53,11.30
2019,10,25,00,54,11.30
2019,10,25,00,55,11.30
2019,10,25,00,56,11.30
2019,10,25,00,57,11.30
2019,10,25,00,58,11.30
2019,10,25,00,59,11.30
2019,10,25,01,00,11.30
2019,10,25,01,01,11.30
2019,10,25,01,02,11.30
2019,10,25,01,03,11.40
2019,10,25,01,04,11.40
2019,10,25,01,05,11.30
2019,10,25,01,06,11.30
2019,10,25,01,07,11.30
2019,10,25,01,08,11.30
2019,10,25,01,09,11.30
2019,10,25,01,10,11.30
2019,10,25,01,11,11.30
2019,10,25,01,12,11.30
2019,10,25,01,13,11.30
2019,10,25,01,14,11.40
2019,10,25,01,15,11.40
2019,10,25,01,16,11.40
2019,10,25,01,17,11.50
2019,10,25,01,18,11.60
2019,10,25,01,19,11.70
2019,10,25,01,20,11.90
2019,10,25,01,21,12.10
2019,10,25,01,22,12.20
2019,10,25,01,23,12.30
2019,10,25,01,24,12.40
2019,10,25,01,25,12.60
2019,10,25,01,26,12.70
2019,10,25,01,27,12.80
2019,10,25,01,28,12.80
2019,10,25,01,29,12.80
2019,10,25,01,30,12.90
2019,10,25,01,31,12.90
2019,10,25,01,32,12.90
2019,10,25,01,33,13.00
2019,10,25,01,34,13.10
2019,10,25,01,35,13.10
2019,10,25,01,36,13.10
2019,10,25,01,37,13.10
2019,10,25,01,38,13.10
2019,10,25,01,39,13.10
2019,10,25,01,40,13.10
2019,10,25,01,41,13.10
2019,10,25,01,42,13.10
2019,10,25,01,43,13.10
2019,10,25,01,44,13.10
2019,10,25,01,45,13.10
2019,10,25,01,46,13.20
2019,10,25,01,47,13.20
2019,10,25,01,48,13.20
2019,10,25,01,49,13.20
2019,10,25,01,50,13.20
2019,10,25,01,51,13.20
2019,10,25,01,52,13.20
2019,10,25,01,53,13.20
2019,10,25,01,54,13.20
2019,10,25,01,55,13.20
2019,10,25,01,56,13.20
2019,10,25,01,57,13.20
2019,10,25,01,58,13.20
2019,10,25,01,59,13.20
2019,10,25,02,00,13.20
2019,10,25,02,01,13.20
2019,10,25,02,02,13.20
2019,10,25,02,03,13.10
2019,10,25,02,04,13.20
2019,10,25,02,05,13.20
2019,10,25,02,06,13.10
2019,10,25,02,07,13.10
2019,10,25,02,08,13.10
2019,10,25,02,09,13.10
2019,10,25,02,10,13.10
2019,10,25,02,11,13.10
2019,10,25,02,12,13.10
2019,10,25,02,13,13.10
2019,10,25,02,14,13.10
2019,10,25,02,15,13.10
2019,10,25,02,16,13.10
2019,10,25,02,17,13.10
2019,10,25,02,18,13.10
2019,10,25,02,19,13.10
2019,10,25,02,20,13.10
2019,10,25,02,21,13.10
2019,10,25,02,22,13.10
2019,10,25,02,23,13.10
2019,10,25,02,24,13.10
2019,10,25,02,25,13.10
2019,10,25,02,26,13.10
2019,10,25,02,27,13.10
2019,10,25,02,28,13.10
2019,10,25,02,29,13.10
2019,10,25,02,30,13.10
2019,10,25,02,31,13.10
2019,10,25,02,32,13.10
2019,10,25,02,33,13.10
2019,10,25,02,34,13.10
2019,10,25,02,35,13.10
2019,10,25,02,36,13.10
2019,10,25,02,37,13.10
2019,10,25,02,38,13.10
2019,10,25,02,39,13.00
2019,10,25,02,40,13.10
2019,10,25,02,41,13.00
2019,10,25,02,42,13.00
2019,10,25,02,43,13.10
2019,10,25,02,44,13.00
2019,10,25,02,45,13.00
2019,10,25,02,46,13.00
2019,10,25,02,47,13.10
2019,10,25,02,48,13.00
2019,10,25,02,49,13.10
2019,10,25,02,50,13.10
2019,10,25,02,51,13.10
2019,10,25,02,52,13.10
2019,10,25,02,53,13.20
2019,10,25,02,54,13.20
2019,10,25,02,55,13.20
2019,10,25,02,56,13.30
2019,10,25,02,57,13.30
2019,10,25,02,58,13.30
2019,10,25,02,59,13.40
2019,10,25,03,00,13.40
2019,10,25,03,01,13.40
2019,10,25,03,02,13.40
2019,10,25,03,03,13.40
2019,10,25,03,04,13.40
2019,10,25,03,05,13.40
2019,10,25,03,06,13.40
2019,10,25,03,07,13.40
2019,10,25,03,08,13.40
2019,10,25,03,09,13.40
2019,10,25,03,10,13.30
2019,10,25,03,11,13.30
2019,10,25,03,12,13.30
2019,10,25,03,13,13.40
2019,10,25,03,14,13.40
2019,10,25,03,15,13.40
2019,10,25,03,16,13.40
2019,10,25,03,17,13.30
2019,10,25,03,18,13.30
2019,10,25,03,19,13.30
2019,10,25,03,20,13.30
2019,10,25,03,21,13.30
2019,10,25,03,22,13.20
2019,10,25,03,23,13.20
2019,10,25,03,24,13.20
2019,10,25,03,25,13.20
2019,10,25,03,26,13.20
2019,10,25,03,27,13.20
2019,10,25,03,28,13.20
2019,10,25,03,29,13.20
2019,10,25,03,30,13.20
2019,10,25,03,31,13.20
2019,10,25,03,32,13.30
2019,10,25,03,33,13.30
2019,10,25,03,34,13.30
2019,10,25,03,35,13.30
2019,10,25,03,36,13.30
2019,10,25,03,37,13.40
2019,10,25,03,38,13.40
2019,10,25,03,39,13.40
2019,10,25,03,40,13.40
2019,10,25,03,41,13.40
2019,10,25,03,42,13.50
2019,10,25,03,43,13.50
2019,10,25,03,44,13.50
2019,10,25,03,45,13.50
2019,10,25,03,46,13.50
2019,10,25,03,47,13.50
2019,10,25,03,48,13.50
2019,10,25,03,49,13.50
2019,10,25,03,50,13.50
2019,10,25,03,51,13.60
2019,10,25,03,52,13.60
2019,10,25,03,53,13.60
2019,10,25,03,54,13.60
2019,10,25,03,55,13.60
2019,10,25,03,56,13.60
2019,10,25,03,57,13.60
2019,10,25,03,58,13.50
2019,10,25,03,59,13.50
2019,10,25,04,00,13.50
2019,10,25,04,01,13.50
2019,10,25,04,02,13.50
2019,10,25,04,03,13.60
2019,10,25,04,04,13.60
2019,10,25,04,05,13.60
2019,10,25,04,06,13.60
2019,10,25,04,07,13.60
2019,10,25,04,08,13.60
2019,10,25,04,09,13.60
2019,10,25,04,10,13.60
2019,10,25,04,11,13.60
2019,10,25,04,12,13.50
2019,10,25,04,13,13.50
2019,10,25,04,14,13.50
2019,10,25,04,15,13.50
2019,10,25,04,16,13.60
2019,10,25,04,17,13.60
2019,10,25,04,18,13.70
2019,10,25,04,19,13.70
2019,10,25,04,20,13.80
2019,10,25,04,21,13.80
2019,10,25,04,22,13.90
2019,10,25,04,23,14.10
2019,10,25,04,24,14.20
2019,10,25,04,25,14.30
2019,10,25,04,26,14.30
2019,10,25,04,27,14.40
2019,10,25,04,28,14.60
2019,10,25,04,29,14.70
2019,10,25,04,30,14.70
2019,10,25,04,31,14.80
2019,10,25,04,32,14.80
2019,10,25,04,33,14.80
2019,10,25,04,34,14.80
2019,10,25,04,35,14.80
2019,10,25,04,36,14.80
2019,10,25,04,37,14.90
2019,10,25,04,38,14.80
2019,10,25,04,39,14.80
2019,10,25,04,40,14.80
2019,10,25,04,41,14.80
2019,10,25,04,42,14.80
2019,10,25,04,43,14.80
2019,10,25,04,44,14.80
2019,10,25,04,45,14.80
2019,10,25,04,46,14.90
2019,10,25,04,47,14.90
2019,10,25,04,48,14.90
2019,10,25,04,49,14.90
2019,10,25,04,50,14.90
2019,10,25,04,51,14.90
2019,10,25,04,52,14.80
2019,10,25,04,53,14.80
2019,10,25,04,54,14.80
2019,10,25,04,56,14.80
2019,10,25,04,57,14.80
2019,10,25,04,58,14.80
2019,10,25,04,59,14.80
2019,10,25,05,00,14.80
2019,10,25,05,01,14.80
2019,10,25,05,02,14.80
2019,10,25,05,03,14.80
2019,10,25,05,04,14.80
2019,10,25,05,05,14.80
2019,10,25,05,06,14.80
2019,10,25,05,07,14.90
2019,10,25,05,08,14.90
2019,10,25,05,09,14.90
2019,10,25,05,10,14.90
2019,10,25,05,11,14.90
2019,10,25,05,12,15.00
2019,10,25,05,13,14.90
2019,10,25,05,14,15.00
2019,10,25,05,15,15.00
2019,10,25,05,16,15.00
2019,10,25,05,17,14.90
2019,10,25,05,18,14.90
2019,10,25,05,19,14.90
2019,10,25,05,20,14.90
2019,10,25,05,21,14.90
2019,10,25,05,22,15.00
2019,10,25,05,23,15.00
2019,10,25,05,24,15.00
2019,10,25,05,25,15.00
2019,10,25,05,26,15.00
2019,10,25,05,27,15.00
2019,10,25,05,28,15.00
2019,10,25,05,29,14.90
2019,10,25,05,31,14.90
2019,10,25,05,32,14.90
2019,10,25,05,33,14.90
2019,10,25,05,34,14.90
2019,10,25,05,35,14.90
2019,10,25,05,36,14.90
2019,10,25,05,37,14.90
2019,10,25,05,38,14.90
2019,10,25,05,39,14.90
2019,10,25,05,40,14.90
2019,10,25,05,41,14.80
2019,10,25,05,42,14.80
2019,10,25,05,43,14.80
2019,10,25,05,44,14.80
2019,10,25,05,45,14.90
2019,10,25,05,46,14.80
2019,10,25,05,47,14.80
2019,10,25,05,48,14.80
2019,10,25,05,49,14.80
2019,10,25,05,50,14.80
2019,10,25,05,51,14.80
2019,10,25,05,52,14.80
2019,10,25,05,53,14.80
2019,10,25,05,54,14.80
2019,10,25,05,55,14.90
2019,10,25,05,56,14.90
2019,10,25,05,57,14.90
2019,10,25,05,58,14.80
2019,10,25,05,59,14.80
2019,10,25,06,00,14.80
2019,10,25,06,01,14.80
2019,10,25,06,03,14.80
2019,10,25,06,04,14.80
2019,10,25,06,05,14.80
2019,10,25,06,06,14.80
2019,10,25,06,07,14.70
2019,10,25,06,08,14.70
2019,10,25,06,09,14.70
2019,10,25,06,10,14.70
2019,10,25,06,11,14.70
2019,10,25,06,12,14.70
2019,10,25,06,13,14.70
2019,10,25,06,14,14.60
2019,10,25,06,15,14.60
2019,10,25,06,16,14.60
2019,10,25,06,17,14.60
2019,10,25,06,18,14.50
2019,10,25,06,19,14.40
2019,10,25,06,20,14.40
2019,10,25,06,21,14.40
2019,10,25,06,22,14.40
2019,10,25,06,23,14.30
2019,10,25,06,25,14.30
2019,10,25,06,26,14.20
2019,10,25,06,27,14.20
2019,10,25,06,28,14.20
2019,10,25,06,29,14.10
2019,10,25,06,30,14.10
2019,10,25,06,31,14.10
2019,10,25,06,32,14.00
2019,10,25,06,33,13.90
2019,10,25,06,34,13.90
2019,10,25,06,35,13.90
2019,10,25,06,36,13.80
2019,10,25,06,37,13.80
2019,10,25,06,38,13.80
2019,10,25,06,39,13.80
2019,10,25,06,40,13.70
2019,10,25,06,41,13.70
2019,10,25,06,42,13.70
2019,10,25,06,43,13.70
2019,10,25,06,44,13.60
2019,10,25,06,45,13.60
2019,10,25,06,46,13.60
2019,10,25,06,47,13.60
2019,10,25,06,48,13.60
2019,10,25,06,49,13.50
2019,10,25,06,50,13.50
2019,10,25,06,51,13.40
2019,10,25,06,52,13.40
2019,10,25,06,53,13.40
2019,10,25,06,54,13.40
2019,10,25,06,55,13.40
2019,10,25,06,56,13.40
2019,10,25,06,57,13.40
2019,10,25,06,58,13.30
2019,10,25,06,59,13.40
2019,10,25,07,00,13.30
2019,10,25,07,01,13.30
2019,10,25,07,02,13.30
2019,10,25,07,03,13.30
2019,10,25,07,04,13.20
2019,10,25,07,05,13.20
2019,10,25,07,06,13.20
2019,10,25,07,07,13.20
2019,10,25,07,08,13.20
2019,10,25,07,09,13.20
2019,10,25,07,11,13.10
2019,10,25,07,12,13.20
2019,10,25,07,13,13.20
2019,10,25,07,14,13.20
2019,10,25,07,15,13.20
2019,10,25,07,16,13.20
2019,10,25,07,17,13.20
2019,10,25,07,18,13.20
2019,10,25,07,19,13.20
2019,10,25,07,20,13.20
2019,10,25,07,22,13.20
2019,10,25,07,23,13.30
2019,10,25,07,24,13.30
2019,10,25,07,25,13.30
2019,10,25,07,27,13.30
2019,10,25,07,28,13.30
2019,10,25,07,29,13.30
2019,10,25,07,30,13.30
2019,10,25,07,31,13.30
2019,10,25,07,32,13.30
2019,10,25,07,33,13.30
2019,10,25,07,34,13.30
2019,10,25,07,35,13.30
2019,10,25,07,36,13.30
2019,10,25,07,37,13.20
2019,10,25,07,38,13.20
2019,10,25,07,39,13.20
2019,10,25,07,41,13.20
2019,10,25,07,42,13.10
2019,10,25,07,43,13.10
2019,10,25,07,44,13.10
2019,10,25,07,46,13.00
2019,10,25,07,47,13.00
2019,10,25,07,48,12.90
2019,10,25,07,49,12.90
2019,10,25,07,50,12.90
2019,10,25,07,52,12.80
2019,10,25,07,53,12.80
2019,10,25,07,54,12.80
2019,10,25,07,55,12.80
2019,10,25,07,56,12.80
2019,10,25,07,57,12.70
2019,10,25,07,58,12.70
2019,10,25,08,00,12.70
2019,10,25,08,01,12.70
2019,10,25,08,03,12.70
2019,10,25,08,04,12.70
2019,10,25,08,05,12.70
2019,10,25,08,06,12.70
2019,10,25,08,07,12.70
2019,10,25,08,08,12.70
2019,10,25,08,09,12.70
2019,10,25,08,11,12.60
2019,10,25,08,12,12.60
2019,10,25,08,13,12.60
2019,10,25,08,14,12.50
2019,10,25,08,15,12.40
2019,10,25,08,16,12.40
2019,10,25,08,17,12.30
2019,10,25,08,19,12.30
2019,10,25,08,20,12.30
2019,10,25,08,21,12.20
2019,10,25,08,22,12.20
2019,10,25,08,23,12.20
2019,10,25,08,25,12.20
2019,10,25,08,26,12.20
2019,10,25,08,27,12.20
2019,10,25,08,28,12.20
2019,10,25,08,30,12.20
2019,10,25,08,32,12.10
2019,10,25,08,33,12.10
2019,10,25,08,35,12.10
2019,10,25,08,36,12.10
2019,10,25,08,37,12.00
2019,10,25,08,38,11.90
2019,10,25,08,40,11.90
2019,10,25,08,41,11.90
2019,10,25,08,42,11.80
2019,10,25,08,43,11.80
2019,10,25,08,44,11.80
2019,10,25,08,46,11.80
2019,10,25,08,48,11.70
2019,10,25,08,49,11.70
2019,10,25,08,51,11.70
2019,10,25,08,52,11.70
2019,10,25,08,53,11.70
2019,10,25,08,54,11.60
2019,10,25,08,55,11.60
2019,10,25,08,57,11.60
2019,10,25,08,58,11.60
2019,10,25,08,59,11.60
2019,10,25,09,00,11.50
2019,10,25,09,02,11.40
2019,10,25,09,04,11.40
2019,10,25,09,05,11.30
2019,10,25,09,07,11.30
2019,10,25,09,08,11.30
2019,10,25,09,09,11.30
2019,10,25,09,11,11.20
2019,10,25,09,12,11.20
2019,10,25,09,13,11.20
2019,10,25,09,15,11.20
2019,10,25,09,16,11.20
2019,10,25,09,17,11.20
2019,10,25,09,18,11.20
2019,10,25,09,19,11.20
2019,10,25,09,21,11.10
2019,10,25,09,22,11.10
2019,10,25,09,23,11.10
2019,10,25,09,24,11.10
2019,10,25,09,26,11.10
2019,10,25,09,27,11.10
2019,10,25,09,28,11.10
2019,10,25,09,30,11.10
2019,10,25,09,31,11.00
2019,10,25,09,32,11.00
2019,10,25,09,34,11.00
2019,10,25,09,35,11.00
2019,10,25,09,36,11.00
2019,10,25,09,38,10.90
2019,10,25,09,39,11.00
2019,10,25,09,40,11.00
2019,10,25,09,41,11.00
2019,10,25,09,42,10.90
2019,10,25,09,43,10.90
2019,10,25,09,44,10.90
2019,10,25,09,46,10.90
2019,10,25,09,47,11.00
2019,10,25,09,49,11.00
2019,10,25,09,50,11.00
2019,10,25,09,51,11.00
2019,10,25,09,52,11.10
2019,10,25,09,54,11.10
2019,10,25,09,55,11.10
2019,10,25,09,56,11.10
2019,10,25,09,57,11.10
2019,10,25,09,59,11.10
2019,10,25,10,00,11.20
2019,10,25,10,01,11.20
2019,10,25,10,02,11.20
2019,10,25,10,03,11.20
2019,10,25,10,04,11.20
2019,10,25,10,05,11.20
2019,10,25,10,06,11.30
2019,10,25,10,07,11.30
2019,10,25,10,08,11.40
2019,10,25,10,10,11.50
2019,10,25,10,11,11.60
2019,10,25,10,12,11.60
2019,10,25,10,13,11.70
2019,10,25,10,15,11.80
2019,10,25,10,16,11.80
2019,10,25,10,17,11.90
2019,10,25,10,18,11.90
2019,10,25,10,19,12.00
2019,10,25,10,20,12.10
2019,10,25,10,21,12.10
2019,10,25,10,23,12.10
2019,10,25,10,24,12.20
2019,10,25,10,25,12.20
2019,10,25,10,26,12.30
2019,10,25,10,28,12.30
2019,10,25,10,29,12.40
2019,10,25,10,30,12.40
2019,10,25,10,31,12.50
2019,10,25,10,32,12.60
2019,10,25,10,33,12.70
2019,10,25,10,34,12.80
2019,10,25,10,35,12.80
2019,10,25,10,36,12.90
2019,10,25,10,37,12.90
2019,10,25,10,38,12.90
2019,10,25,10,39,12.90
2019,10,25,10,40,12.90
2019,10,25,10,42,12.90
2019,10,25,10,43,12.80
2019,10,25,10,44,12.90
2019,10,25,10,45,12.90
2019,10,25,10,46,12.90
2019,10,25,10,48,12.90
2019,10,25,10,49,13.00
2019,10,25,10,50,13.00
2019,10,25,10,51,13.10
2019,10,25,10,52,13.10
2019,10,25,10,53,13.10
2019,10,25,10,55,13.10
2019,10,25,10,56,13.10
2019,10,25,10,57,13.20
2019,10,25,10,58,13.30
2019,10,25,10,59,13.30
2019,10,25,11,00,13.30
2019,10,25,11,01,13.30
2019,10,25,11,02,13.20
2019,10,25,11,04,13.20
2019,10,25,11,05,13.20
2019,10,25,11,06,13.20
2019,10,25,11,07,13.20
2019,10,25,11,09,13.20
2019,10,25,11,10,13.20
2019,10,25,11,11,13.20
2019,10,25,11,12,13.20
2019,10,25,11,14,13.30
2019,10,25,11,15,13.30
2019,10,25,11,16,13.30
2019,10,25,11,17,13.30
2019,10,25,11,18,13.30
2019,10,25,11,20,13.30
2019,10,25,11,22,13.40
2019,10,25,11,23,13.40
2019,10,25,11,24,13.40
2019,10,25,11,25,13.40
2019,10,25,11,26,13.50
2019,10,25,11,28,13.60
2019,10,25,11,29,13.60
2019,10,25,11,30,13.70
2019,10,25,11,31,13.80
2019,10,25,11,33,13.80
2019,10,25,11,34,13.90
2019,10,25,11,35,14.00
2019,10,25,11,36,14.10
2019,10,25,11,37,14.10
2019,10,25,11,39,14.20
2019,10,25,11,40,14.20
2019,10,25,11,42,14.30
2019,10,25,11,43,14.30
2019,10,25,11,44,14.40
2019,10,25,11,45,14.40
2019,10,25,11,47,14.40
2019,10,25,11,48,14.40
2019,10,25,11,49,14.40
2019,10,25,11,50,14.40
2019,10,25,11,51,14.40
2019,10,25,11,52,14.40
2019,10,25,11,53,14.40
2019,10,25,11,54,14.40
2019,10,25,11,56,14.50
2019,10,25,11,57,14.50
2019,10,25,11,59,14.40
2019,10,25,12,00,14.30
2019,10,25,12,02,14.30
2019,10,25,12,03,14.30
2019,10,25,12,04,14.30
2019,10,25,12,05,14.30
2019,10,25,12,06,14.30
2019,10,25,12,07,14.30
2019,10,25,12,08,14.20
2019,10,25,12,09,14.20
2019,10,25,12,10,14.20
2019,10,25,12,11,14.20
2019,10,25,12,13,14.20
2019,10,25,12,14,14.30
2019,10,25,12,15,14.30
2019,10,25,12,16,14.30
2019,10,25,12,17,14.30
2019,10,25,12,18,14.30
2019,10,25,12,19,14.30
2019,10,25,12,21,14.30
2019,10,25,12,22,14.30
2019,10,25,12,24,14.30
2019,10,25,12,25,14.40
2019,10,25,12,26,14.40
2019,10,25,12,27,14.40
2019,10,25,12,28,14.50
2019,10,25,12,29,14.50
2019,10,25,12,31,14.60
2019,10,25,12,32,14.60
2019,10,25,12,33,14.60
2019,10,25,12,34,14.60
2019,10,25,12,36,14.60
2019,10,25,12,37,14.60
2019,10,25,12,38,14.60
2019,10,25,12,39,14.60
2019,10,25,12,40,14.60
2019,10,25,12,42,14.70
2019,10,25,12,43,14.70
2019,10,25,12,44,14.70
2019,10,25,12,45,14.70
2019,10,25,12,46,14.70
2019,10,25,12,47,14.70
2019,10,25,12,48,14.70
2019,10,25,12,49,14.70
2019,10,25,12,51,14.70
2019,10,25,12,52,14.80
2019,10,25,12,53,14.80
2019,10,25,12,54,14.80
2019,10,25,12,55,14.80
2019,10,25,12,56,14.80
2019,10,25,12,57,14.90
2019,10,25,12,59,14.90
2019,10,25,13,00,15.00
2019,10,25,13,02,15.10
2019,10,25,13,03,15.10
2019,10,25,13,04,15.20
2019,10,25,13,05,15.20
2019,10,25,13,07,15.20
2019,10,25,13,09,15.20
2019,10,25,13,10,15.20
2019,10,25,13,11,15.30
2019,10,25,13,12,15.30
2019,10,25,13,14,15.40
2019,10,25,13,15,15.40
2019,10,25,13,17,15.40
2019,10,25,13,18,15.50
2019,10,25,13,20,15.60
2019,10,25,13,21,15.60
2019,10,25,13,23,15.70
2019,10,25,13,24,15.70
2019,10,25,13,25,15.80
2019,10,25,13,26,15.80
2019,10,25,13,27,15.80
2019,10,25,13,28,15.80
2019,10,25,13,29,15.80
2019,10,25,13,31,15.80
2019,10,25,13,32,15.80
2019,10,25,13,33,15.80
2019,10,25,13,34,15.80
2019,10,25,13,35,15.80
2019,10,25,13,36,15.80
2019,10,25,13,37,15.80
2019,10,25,13,39,15.80
2019,10,25,13,40,15.90
2019,10,25,13,41,15.90
2019,10,25,13,42,15.90
2019,10,25,13,43,15.90
2019,10,25,13,45,15.90
2019,10,25,13,47,16.00
2019,10,25,13,48,16.00
2019,10,25,13,49,16.10
2019,10,25,13,50,16.10
2019,10,25,13,51,16.20
2019,10,25,13,52,16.20
2019,10,25,13,53,16.20
2019,10,25,13,54,16.20
2019,10,25,13,55,16.20
2019,10,25,13,56,16.30
2019,10,25,13,57,16.30
2019,10,25,13,58,16.30
2019,10,25,13,59,16.30
2019,10,25,14,01,16.30
2019,10,25,14,02,16.30
2019,10,25,14,03,16.30
2019,10,25,14,04,16.40
2019,10,25,14,06,16.40
2019,10,25,14,07,16.50
2019,10,25,14,09,16.50
2019,10,25,14,10,16.50
2019,10,25,14,11,16.60
2019,10,25,14,12,16.60
2019,10,25,14,13,16.60
2019,10,25,14,14,16.70
2019,10,25,14,15,16.70
2019,10,25,14,16,16.70
2019,10,25,14,17,16.70
2019,10,25,14,18,16.60
2019,10,25,14,19,16.60
2019,10,25,14,20,16.60
2019,10,25,14,21,16.60
2019,10,25,14,22,16.60
2019,10,25,14,23,16.70
2019,10,25,14,24,16.70
2019,10,25,14,25,16.70
2019,10,25,14,26,16.80
2019,10,25,14,27,16.80
2019,10,25,14,28,16.80
2019,10,25,14,29,16.80
2019,10,25,14,30,16.80
2019,10,25,14,31,16.80
2019,10,25,14,33,16.80
2019,10,25,14,34,16.80
2019,10,25,14,36,16.90
2019,10,25,14,37,16.90
2019,10,25,14,38,16.90
2019,10,25,14,39,16.80
2019,10,25,14,40,16.80
2019,10,25,14,41,16.80
2019,10,25,14,42,16.80
2019,10,25,14,43,16.80
2019,10,25,14,44,16.80
2019,10,25,14,45,16.80
2019,10,25,14,46,16.80
2019,10,25,14,47,16.80
2019,10,25,14,49,16.80
2019,10,25,14,50,16.80
2019,10,25,14,51,16.80
2019,10,25,14,53,16.80
2019,10,25,14,54,16.80
2019,10,25,14,55,16.90
2019,10,25,14,56,16.90
2019,10,25,14,57,16.90
2019,10,25,14,58,17.00
2019,10,25,14,59,17.10
2019,10,25,15,00,17.10
2019,10,25,15,01,17.10
2019,10,25,15,02,17.10
2019,10,25,15,03,17.00
2019,10,25,15,04,17.00
2019,10,25,15,05,16.90
2019,10,25,15,06,16.90
2019,10,25,15,08,17.00
2019,10,25,15,09,17.10
2019,10,25,15,10,17.20
2019,10,25,15,11,17.20
2019,10,25,15,12,17.20
2019,10,25,15,13,17.30
2019,10,25,15,14,17.30
2019,10,25,15,15,17.30
2019,10,25,15,17,17.30
2019,10,25,15,18,17.30
2019,10,25,15,19,17.30
2019,10,25,15,20,17.30
2019,10,25,15,21,17.30
2019,10,25,15,22,17.30
2019,10,25,15,23,17.30
2019,10,25,15,25,17.30
2019,10,25,15,26,17.30
2019,10,25,15,27,17.30
2019,10,25,15,28,17.30
2019,10,25,15,29,17.30
2019,10,25,15,30,17.30
2019,10,25,15,31,17.30
2019,10,25,15,32,17.30
2019,10,25,15,33,17.30
2019,10,25,15,34,17.20
2019,10,25,15,35,17.20
2019,10,25,15,36,17.20
2019,10,25,15,37,17.10
2019,10,25,15,38,17.10
2019,10,25,15,39,17.10
2019,10,25,15,40,17.10
2019,10,25,15,41,17.10
2019,10,25,15,42,17.20
2019,10,25,15,44,17.20
2019,10,25,15,45,17.20
2019,10,25,15,46,17.30
2019,10,25,15,47,17.30
2019,10,25,15,49,17.30
2019,10,25,15,50,17.30
2019,10,25,15,51,17.40
2019,10,25,15,52,17.40
2019,10,25,15,53,17.40
2019,10,25,15,54,17.40
2019,10,25,15,55,17.40
2019,10,25,15,56,17.30
2019,10,25,15,57,17.30
2019,10,25,15,58,17.30
2019,10,25,16,00,17.20
2019,10,25,16,01,17.20
2019,10,25,16,02,17.20
2019,10,25,16,03,17.20
2019,10,25,16,04,17.20
2019,10,25,16,05,17.20
2019,10,25,16,06,17.20
2019,10,25,16,07,17.20
2019,10,25,16,08,17.20
2019,10,25,16,09,17.10
2019,10,25,16,10,17.10
2019,10,25,16,11,17.10
2019,10,25,16,12,17.10
2019,10,25,16,13,17.10
2019,10,25,16,14,17.20
2019,10,25,16,15,17.20
2019,10,25,16,16,17.20
2019,10,25,16,17,17.20
2019,10,25,16,18,17.20
2019,10,25,16,19,17.20
2019,10,25,16,20,17.20
2019,10,25,16,21,17.20
2019,10,25,16,22,17.10
2019,10,25,16,23,17.10
2019,10,25,16,24,17.10
2019,10,25,16,25,17.10
2019,10,25,16,26,17.10
2019,10,25,16,27,17.10
2019,10,25,16,29,17.00
2019,10,25,16,30,16.90
2019,10,25,16,31,16.80
2019,10,25,16,32,16.80
2019,10,25,16,33,16.80
2019,10,25,16,34,16.80
2019,10,25,16,35,16.70
2019,10,25,16,36,16.70
2019,10,25,16,37,16.70
2019,10,25,16,38,16.70
2019,10,25,16,39,16.70
2019,10,25,16,40,16.70
2019,10,25,16,41,16.70
2019,10,25,16,42,16.70
2019,10,25,16,43,16.80
2019,10,25,16,44,16.70
2019,10,25,16,45,16.80
2019,10,25,16,46,16.80
2019,10,25,16,47,16.80
2019,10,25,16,48,16.80
2019,10,25,16,49,16.80
2019,10,25,16,50,16.80
2019,10,25,16,51,16.70
2019,10,25,16,52,16.70
2019,10,25,16,53,16.70
2019,10,25,16,54,16.60
2019,10,25,16,55,16.50
2019,10,25,16,56,16.40
2019,10,25,16,57,16.30
2019,10,25,16,58,16.20
2019,10,25,16,59,16.20
2019,10,25,17,00,16.20
2019,10,25,17,02,16.10
2019,10,25,17,03,16.10
2019,10,25,17,04,16.00
2019,10,25,17,05,15.90
2019,10,25,17,06,15.90
2019,10,25,17,07,15.90
2019,10,25,17,09,15.80
2019,10,25,17,10,15.80
2019,10,25,17,11,15.80
2019,10,25,17,12,15.70
2019,10,25,17,13,15.70
2019,10,25,17,14,15.70
2019,10,25,17,15,15.70
2019,10,25,17,16,15.70
2019,10,25,17,18,15.70
2019,10,25,17,19,15.70
2019,10,25,17,21,15.70
2019,10,25,17,22,15.70
2019,10,25,17,23,15.70
2019,10,25,17,24,15.60
2019,10,25,17,25,15.60
2019,10,25,17,26,15.50
2019,10,25,17,28,15.40
2019,10,25,17,29,15.30
2019,10,25,17,30,15.30
2019,10,25,17,31,15.20
2019,10,25,17,32,15.20
2019,10,25,17,33,15.10
2019,10,25,17,34,15.10
2019,10,25,17,35,15.00
2019,10,25,17,36,14.90
2019,10,25,17,37,14.80
2019,10,25,17,38,14.80
2019,10,25,17,39,14.80
2019,10,25,17,40,14.70
2019,10,25,17,41,14.70
2019,10,25,17,42,14.60
2019,10,25,17,43,14.60
2019,10,25,17,44,14.60
2019,10,25,17,45,14.50
2019,10,25,17,46,14.40
2019,10,25,17,47,14.40
2019,10,25,17,48,14.40
2019,10,25,17,49,14.30
2019,10,25,17,50,14.30
2019,10,25,17,51,14.20
2019,10,25,17,52,14.20
2019,10,25,17,53,14.20
2019,10,25,17,54,14.10
2019,10,25,17,55,14.10
2019,10,25,17,56,14.10
2019,10,25,17,57,14.00
2019,10,25,17,58,14.00
2019,10,25,17,59,13.90
2019,10,25,18,00,13.90
2019,10,25,18,01,13.90
2019,10,25,18,02,13.90
2019,10,25,18,03,13.80
2019,10,25,18,04,13.80
2019,10,25,18,05,13.80
2019,10,25,18,06,13.70
2019,10,25,18,07,13.70
2019,10,25,18,08,13.70
2019,10,25,18,09,13.70
2019,10,25,18,10,13.60
2019,10,25,18,11,13.60
2019,10,25,18,12,13.60
2019,10,25,18,13,13.50
2019,10,25,18,14,13.50
2019,10,25,18,15,13.40
2019,10,25,18,16,13.40
2019,10,25,18,17,13.40
2019,10,25,18,18,13.30
2019,10,25,18,19,13.30
2019,10,25,18,20,13.20
2019,10,25,18,21,13.20
2019,10,25,18,22,13.10
2019,10,25,18,23,13.10
2019,10,25,18,24,13.00
2019,10,25,18,25,12.90
2019,10,25,18,26,12.80
2019,10,25,18,27,12.80
2019,10,25,18,28,12.70
2019,10,25,18,29,12.70
2019,10,25,18,30,12.60
2019,10,25,18,31,12.60
2019,10,25,18,32,12.50
2019,10,25,18,33,12.50
2019,10,25,18,34,12.50
2019,10,25,18,35,12.40
2019,10,25,18,36,12.40
2019,10,25,18,37,12.40
2019,10,25,18,38,12.40
2019,10,25,18,39,12.40
2019,10,25,18,40,12.40
2019,10,25,18,41,12.40
2019,10,25,18,42,12.30
2019,10,25,18,43,12.30
2019,10,25,18,44,12.30
2019,10,25,18,45,12.30
2019,10,25,18,46,12.20
2019,10,25,18,47,12.20
2019,10,25,18,48,12.20
2019,10,25,18,49,12.10
2019,10,25,18,50,12.10
2019,10,25,18,51,12.10
2019,10,25,18,52,12.00
2019,10,25,18,53,11.90
2019,10,25,18,54,11.80